Weather History for Myrtle Beach, SC

Change the Weather History Date:

Tuesday, September 3, 2013

  Actual Average Record
Temperature  
Mean Temperature 80 °F -  
Max Temperature 89 °F 82 °F 93 °F (2010)
Min Temperature 71 °F 68 °F 55 °F (1954)
Cooling Degree Days 15    
Growing Degree Days 30 (Base 50)    
Moisture  
Dew Point 71 °F    
Average Humidity 79    
Maximum Humidity 89    
Minimum Humidity 59    
Precipitation  
Precipitation 0.00 in - - ()
Sea Level Pressure  
Sea Level Pressure 29.89 in    
Wind  
Wind Speed 8 mph (WSW)    
Max Wind Speed 21 mph    
Max Gust Speed 29 mph    
Visibility 10 miles    
Events Rain , Thunderstorm    
Averages and records for this station are not official NWS values.
T = Trace of Precipitation, MM = Missing Value Source: NWS Daily Summary

Daily Weather History Graph

Daily Weather History Graph

Search for Another Location

Airport:

Trip Planner

Search our weather history database for the weather conditions in past years. The results will help you decide how hot, cold, wet, or windy it might be!

Date:

Astronomy

Sep. 03, 2013 Rise Set
Actual Time 6:51 AM EDT 7:38 PM EDT
Civil Twilight 6:25 AM EDT 8:03 PM EDT
Nautical Twilight 5:55 AM EDT 8:33 PM EDT
Astronomical Twilight 5:25 AM EDT 9:03 PM EDT
Moon 5:05 AM EDT (9/3) 6:23 PM EDT (9/3)
Length of Visible Light 13h 37m
Length of Day
12h 47m
Waning Crescent, 3% of the Moon is Illuminated
Sep 3
Waning Crescent
Sep 5
New
Sep 12
First Quarter
Sep 19
Full
Sep 26
Last Quarter

Hourly Weather History & Observations

Time (EDT) Temp. Heat Index Dew Point Humidity Pressure Visibility Wind Dir Wind Speed Gust Speed Precip Events Conditions
12:15 AM 80.6 °F 85.4 °F 73.4 °F 79% 29.89 in 10.0 mi WSW 11.5 mph - N/A   Clear
12:35 AM 78.8 °F - 71.6 °F 78% 29.90 in 10.0 mi West 8.1 mph - N/A   Clear
12:55 AM 78.8 °F - 69.8 °F 74% 29.89 in 10.0 mi WSW 11.5 mph 16.1 mph N/A   Clear
1:15 AM 78.8 °F - 69.8 °F 74% 29.88 in 10.0 mi West 10.4 mph - N/A   Clear
1:35 AM 78.8 °F - 69.8 °F 74% 29.88 in 10.0 mi WSW 8.1 mph - N/A   Clear
1:55 AM 77.0 °F - 69.8 °F 78% 29.88 in 10.0 mi West 8.1 mph - N/A   Clear
2:15 AM 77.0 °F - 69.8 °F 78% 29.87 in 10.0 mi West 8.1 mph - N/A   Clear
2:35 AM 75.2 °F - 69.8 °F 83% 29.86 in 10.0 mi WSW 5.8 mph - N/A   Clear
2:55 AM 75.2 °F - 69.8 °F 83% 29.86 in 10.0 mi WSW 6.9 mph - N/A   Clear
3:15 AM 75.2 °F - 69.8 °F 83% 29.87 in 10.0 mi SW 5.8 mph - N/A   Clear
3:35 AM 75.2 °F - 69.8 °F 83% 29.86 in 10.0 mi WSW 8.1 mph - N/A   Clear
3:55 AM 75.2 °F - 69.8 °F 83% 29.86 in 10.0 mi SW 6.9 mph - N/A   Clear
4:15 AM 75.2 °F - 69.8 °F 83% 29.86 in 10.0 mi SW 3.5 mph - N/A   Clear
4:35 AM 75.2 °F - 69.8 °F 83% 29.87 in 10.0 mi WSW 6.9 mph - N/A   Clear
4:55 AM 75.2 °F - 68.0 °F 78% 29.87 in 10.0 mi SW 5.8 mph - N/A   Clear
5:15 AM 75.2 °F - 68.0 °F 78% 29.87 in 10.0 mi SSW 5.8 mph - N/A   Clear
5:35 AM 75.2 °F - 68.0 °F 78% 29.87 in 10.0 mi WSW 8.1 mph - N/A   Clear
5:45 AM 75.2 °F - 68.0 °F 78% 29.86 in 10.0 mi West 6.9 mph - N/A   Clear
6:45 AM 73.4 °F - 68.0 °F 83% 29.88 in 10.0 mi West 6.9 mph - N/A   Clear
7:45 AM 75.2 °F - 69.8 °F 83% 29.90 in 10.0 mi WSW 6.9 mph - N/A   Scattered Clouds
8:45 AM 75.2 °F - 69.8 °F 83% 29.92 in 8.0 mi West 6.9 mph - N/A   Scattered Clouds
10:45 AM 82.4 °F 87.2 °F 71.6 °F 70% 29.92 in 10.0 mi SSW 11.5 mph - N/A   Partly Cloudy
11:50 AM 87.8 °F 95.6 °F 73.4 °F 62% 29.90 in 10.0 mi SW 11.5 mph - N/A   Partly Cloudy
12:50 PM 89.6 °F 98.2 °F 73.4 °F 59% 29.89 in 10.0 mi SW 11.5 mph - N/A   Scattered Clouds
2:50 PM 87.8 °F 97.6 °F 75.2 °F 66% 29.87 in 10.0 mi South 16.1 mph - N/A   Mostly Cloudy
3:50 PM 82.4 °F 85.4 °F 68.0 °F 62% 29.87 in 2.0 mi NW 20.7 mph 28.8 mph N/A Rain , Thunderstorm Thunderstorms and Rain
4:47 PM 71.6 °F - 68.0 °F 88% 29.84 in 7.0 mi ENE 5.8 mph - N/A   Mostly Cloudy
5:45 PM 80.6 °F 83.9 °F 69.8 °F 70% 29.86 in 10.0 mi South 11.5 mph - N/A   Clear
7:45 PM 77.0 °F - 69.8 °F 78% 29.89 in 10.0 mi Calm Calm - N/A   Clear
8:45 PM 78.8 °F - 73.4 °F 83% 29.90 in 10.0 mi SSW 9.2 mph - N/A   Clear
9:45 PM 80.6 °F 85.4 °F 73.4 °F 79% 29.92 in 10.0 mi Calm Calm - N/A   Clear
10:55 PM 75.2 °F - 71.6 °F 89% 29.94 in 10.0 mi Calm Calm - N/A   Clear
11:15 PM 75.2 °F - 71.6 °F 89% 29.95 in 8.0 mi Calm Calm - N/A   Clear
11:35 PM 77.0 °F - 73.4 °F 89% 29.95 in 10.0 mi SW 3.5 mph - N/A   Clear
11:55 PM 77.0 °F - 73.4 °F 89% 29.96 in 10.0 mi SW 5.8 mph - N/A   Clear